Location: Ocean City
(38.3360°N, 75.0850°W)
Time: 05:33:44
(UTC-05:00)

Explorer 11/Cluster Stage 4 - Pass Details

Date: 14 November 2019
Orbit: 467 x 1259 km, 28.8° (Epoch: 09 December)

Event Time Altitude Azimuth Distance (km) Brightness Sun altitude
Rises 02:23:49 0° 265° (W) 4,180 - -50.0°
Reaches altitude 10° 02:27:13 10° 255° (WSW) 3,231 - -49.4°
Maximum altitude 02:33:52 28° 201° (SSW) 2,146 - -48.1°
Drops below altitude 10° 02:40:11 10° 147° (SSE) 3,056 - -47.0°
Exits shadow 02:41:24 - 142° (SE) 3,375 10.0 -46.7°
Sets 02:43:18 0° 135° (SE) 3,916 10.4 -46.4°
